Regional Weather Roundup
Issued by NWS Newport/Morehead, NC

Current Version | Previous Version | Graphics & Text | Print | Product List | Glossary Off
Versions: 1 2 3 4 5 6 7 8 9 10 11 12 13 14 15 16 17 18 19 20 21 22 23 24 25 26 27 28 29 30 31 32 33 34 35 36 37 38 39 40 41 42 43 44 45 46 47 48 49 50

284
ASUS42 KMHX 192013
RWRMHX
WEATHER ROUNDUP FOR EASTERN NORTH CAROLINA
NATIONAL WEATHER SERVICE NEWPORT/MOREHEAD CITY NC
300 PM EST SUN FEB 19 2017

NOTE: "FAIR" INDICATES FEW OR NO CLOUDS BELOW 12,000 FEET
WITH NO SIGNIFICANT WEATHER AND/OR OBSTRUCTIONS TO VISIBILITY

NCZ015>017-031-032-045>047-102-103-192100-
NORTH COAST

CITY           SKY/WX    TMP DP  RH WIND       PRES   REMARKS
EDENTON        SUNNY     74  46  37 N8        29.91S
ELIZABETH CITY SUNNY     72  45  37 N7        29.91R
KITTY HAWK     NOT AVBL
MANTEO         SUNNY     65  45  47 N6        29.91S

$$

NCZ045>047-081-094-103-104-192100-
CENTRAL COAST

CITY           SKY/WX    TMP DP  RH WIND       PRES   REMARKS
FRISCO         SUNNY     64  46  52 W5        29.91S

$$

NCZ095-097-098-100-101-192100-
SOUTHERN COAST

CITY           SKY/WX    TMP DP  RH WIND       PRES   REMARKS
BEAUFORT       SUNNY     68  48  48 SW8       29.91R
CEDAR ISLAND   NOT AVBL
JACKSONVILLE   SUNNY     73  44  35 NW13      29.92R
PINEY ISLAND   CLEAR    N/A N/A N/A NE6       29.91R
WILMINGTON     SUNNY     73  47  39 W13G18    29.93S


$$

NCZ011>013-027>030-043-044-078>080-089-090>093-098-192100-
COASTAL PLAIN

CITY           SKY/WX    TMP DP  RH WIND       PRES   REMARKS
AHOSKIE          N/A     71  46  40 CALM      29.93R
CLINTON        SUNNY     71  47  43 W10       29.96S
ELIZABETHTOWN  SUNNY     72  45  38 W8G17     29.95F
GOLDSBORO      SUNNY     72  41  32 NW8       29.92S
GREENVILLE     SUNNY     77  43  29 NW10G16   29.94S
HAVELOCK       SUNNY     74  42  31 N14       29.92R
KENANSVILLE    NOT AVBL
KINSTON        SUNNY     72  39  30 W8        29.94S
NEW BERN       SUNNY     73  43  33 NW12      29.92S
RICHLANDS      SUNNY     72  46  39 W9        29.93S
ROCKY MOUNT    SUNNY     72  44  36 NW13      29.94R
WASHINGTON     SUNNY     72  43  35 N10       29.91S
WHITEVILLE     SUNNY     71  46  41 W7        29.96R

$$

AMZ130-135-150-152-154-156-158-170-250-252-270-ANZ085-086-088-633-658-670-192100-
MARINE OBSERVATIONS

STATION/POSITION TIME  TEMP    WIND        PRES    WAVE   SWELL
                       AIR SEA DIR/SP/G            HT/PER HT/PER
                 (UTC) (F)     (DEG/KT/KT) (MB)    (FT/S) (FT/S)
CHESAPEAKE LIGHT NOT AVBL
64 E VA BEACH    1950   53 52  250/  8/  8 1012.1    2/ 5   2/ 5
DUCK             1948   60 47   20/  5/  5 1012.2
2 E DUCK         2000      51                N/A     1/11
OREGON INLET     1948          350/  9/ 14   N/A
13E OREGON INLT  NOT AVBL
HATTERAS CG      1948   58 56  270/  5/  6 1012.3
DIAMOND BUOY     1950   59 67  310/ 10/ 12 1012.7    2/ 7   2/ 7
CAPE LOOKOUT     2000   64     260/  9/ 12 1012.7
BEAUFORT LAB     1948   65 52  220/  4/  6 1012.0
30 SE NEW RVR IN 1908   62     290/ 10/ 14 1013.2
30 SE NEW RVR IN 1943      64                N/A     2/ 6
27 SE WRIGHTSVLE 1908   60 61  280/  6/ 10 1013.3
5 SE WRIGHTSVLE  1908   64 57  290/  6/  8 1013.1
225 S CAPE HAT   1950   66 71  220/ 16/ 19 1011.2    5/ 6   2/ 9
41 SE CHARLESTON 1950   64 69  250/ 12/ 14 1014.9    2/ 6   2/ 6

$$




USA.gov is the U.S. government's official web portal to all federal, state and local government web resources and services.